Location: Newark
(34.9756°N, 138.3828°E)
Time: 22:46:12
(UTC+00:00)

N. Korean satellite - Pass Details

Date: 13 December 2019
Orbit: 454 x 507 km, 97.2° (Epoch: 21 January)

Event Time Altitude Azimuth Distance (km) Brightness Sun altitude
Rises 07:59:32 0° 172° (S) 2,596 10.5 -5.2°
Reaches altitude 10° 08:01:37 10° 174° (S) 1,715 9.6 -5.6°
Maximum altitude 08:05:18 72° 259° (WSW) 534 7.0 -6.3°
Drops below altitude 10° 08:09:00 10° 344° (NNW) 1,715 9.3 -7.0°
Sets 08:11:05 0° 347° (NNW) 2,597 10.2 -7.4°
